STARLINK-5847

decayed
NORAD ID: 57048 Int'l Des: 2023-088 Owner: SPXS Country: US Constellation: starlink
LEOCIRCULAR

关于 STARLINK-5847

正在加载描述...

高度历史

Altitude vs Time

uPlot chart will show altitude changes over time

两行轨道根数

1 57048U 23088A 25057.76681458 .03390794 93548-5 10000-3 0 9992
2 57048 42.9811 313.2248 0007678 238.1005 181.1184 16.44822429 93346
Epoch: Feb 26, 2025 • Age: 4877 hours

当前状态

Position data unavailable
发射日期 Jun 22, 2023
运行时间 2.2 years
衰减日期 Feb 26, 2025
类型 internet

技术详情

分类 Payload
质量 305.00 kg
干质量 290.00 kg
总质量 305.00 kg
长度 0.20 m
直径 2.80 m
跨度 9.00 m
形状 Box + pan
制造商 SPXS
平台类型 Starlink
阶段状态 Unknown Transfer Status
所有者/国家 SPXS/US

大型星座

Loading constellations...